Regional Weather Roundup
Issued by NWS

Home | Current Version | Previous Version | Graphics & Text | Print | Product List | Glossary On
Versions: 1 2 3 4 5 6 7 8 9 10 11 12 13 14 15 16 17 18 19 20 21 22 23 24 25 26 27
000
ASUS45 KCYS 030910
RWRWY

WYOMING REGIONAL WEATHER ROUNDUP
NATIONAL WEATHER SERVICE CHEYENNE WY
200 AM MST SAT DEC 03 2016

NOTE:  "FAIR" INDICATES FEW OR NO CLOUDS BELOW 12,000 FEET
WITH NO SIGNIFICANT WEATHER AND/OR OBSTRUCTIONS TO VISIBILITY.

WYZ001-031000-
YELLOWSTONE NATIONAL PARK

CITY           SKY/WX    TMP DP  RH WIND       PRES   REMARKS
LK YELLOWSTONE   N/A     12   9  87 CALM      30.03F
W YELLOWSTONE  NOT AVBL

$$
WYZ002>013-054>058-071-098>099-031000-
NORTHERN WYOMING

CITY           SKY/WX    TMP DP  RH WIND       PRES   REMARKS
JACKSON        MOCLDY    18  12  79 SW13      30.11F WCI   4
CODY           NOT AVBL
GREYBULL       FAIR      24  16  71 S6        29.97  WCI  17
WORLAND        FAIR      19  15  84 S6        29.97  WCI  11
SHERIDAN       FAIR      18  11  74 S3        29.90
BUFFALO        NOT AVBL
GILLETTE       NOT AVBL
HULETT         FAIR      30  23  74 S13G23    29.96F WCI  20
NEWCASTLE      PTSUNNY   19  14  79 CALM      30.04F

$$
WYZ014>020-022>026-101>103-031000-
CENTRAL WYOMING

CITY           SKY/WX    TMP DP  RH WIND       PRES   REMARKS
BIG PINEY      CLOUDY     8   4  83 W3        30.11
PINEDALE       PTSUNNY    9   5  85 W6        30.11F WCI  -1
DUBOIS         PTSUNNY   18   3  53 N21G31    29.98S WCI   1
LANDER         FAIR      17   5  59 CALM      29.98
RIVERTON       FAIR      20   7  57 W13       29.97  WCI   7
CASPER         NOT AVBL
DOUGLAS        NOT AVBL

$$
WYZ021-027>030-104>119-031000-
SOUTHERN WYOMING

CITY           SKY/WX    TMP DP  RH WIND       PRES   REMARKS
EVANSTON       FAIR       9   5  84 SW10      30.15  WCI  -5
FORT BRIDGER   FAIR      15  10  78 W13       30.16F WCI   2
ROCK SPRINGS   FAIR      13   9  84 SW17      30.11  WCI  -4
DIXON          LGT SNOW  16  13  88 CALM      30.18F
RAWLINS        NOT AVBL
SARATOGA       FAIR       9   5  85 S9        30.09F WCI  -5
LARAMIE        NOT AVBL
CHEYENNE       NOT AVBL
TORRINGTON     NOT AVBL

$$




USA.gov is the U.S. government's official web portal to all federal, state and local government web resources and services.